Location: Bégole
(43.1574°N, 0.3291°E)
Time: 02:45:45
(UTC+00:00)

Cosmos 2369 - Pass Details

Date: 28 January 2023
Orbit: 838 x 857 km, 71.0° (Epoch: 27 March)

Event Time Altitude Azimuth Distance (km) Brightness Sun altitude
Rises 18:19:16 0° 213° (SSW) 3,376 7.6 -13.6°
Reaches altitude 10° 18:21:43 10° 216° (SW) 2,447 6.8 -14.1°
Maximum altitude 18:27:17 63° 298° (WNW) 938 4.1 -15.1°
Drops below altitude 10° 18:32:54 10° 19° (NNE) 2,472 5.8 -16.1°
Enters shadow 18:34:31 - 22° (NNE) 3,078 6.3 -16.4°
